Tracking 28790 objects as of 18-Apr-2024
HD Live streaming from Space Station
objects crossing your sky now

IRIDIUM 33 DEB

Track IRIDIUM 33 DEB now!
10-day predictions


NORAD ID: 39792
Int'l Code: 1997-051AAZ
Perigee: 711.2 km
Apogee: 914.2 km
Inclination: 86.4 °
Period: 101.0 minutes
Semi major axis: 7183 km
RCS: Unknown
Launch date: September 14, 1997
Source: United States (US)
Launch site: TYURATAM MISSILE AND SPACE COMPLEX (TTMTR)

Note: This is SATELLITE DEBRIS
Your satellite tracking list
Your tracking list is empty




NASA's NSSDC Master Catalog

Two Line Element Set (TLE):
1 39792U 97051AAZ 24108.27735313  .00038083  00000-0  14337-1 0  9999
2 39792  86.4079 109.5801 0141313 239.2738 119.4471 14.25878911507204
Source of the keplerian elements: AFSPC